| time (UTC) | temp F | wind direction | speed MPH | gust MPH | rain 1hr in | rain 24hr in | rain mn in | humidity % | barometer mb |
| 20260502203133 | 71 | 79 | 4.0 | 1.0 | 0.00 | 0.07 | 0.00 | ||
| 20260502202634 | 73 | 89 | 4.0 | 6.0 | 0.00 | 0.07 | 0.00 | ||
| 20260502202131 | 74 | 58 | 0.0 | 5.0 | 0.00 | 0.07 | 0.00 | ||
| 20260502201632 | 72 | 301 | 4.0 | 0.0 | 0.00 | 0.07 | 0.00 | ||
| 20260502201132 | 74 | 343 | 0.0 | 2.0 | 0.00 | 0.07 | 0.00 | ||
| 20260502200630 | 71 | 328 | 3.0 | 5.0 | 0.00 | 0.07 | 0.00 | ||
| 20260502200130 | 69 | 309 | 5.0 | 6.0 | 0.00 | 0.07 | 0.00 | ||
| 20260502195630 | 71 | 6 | 3.0 | 7.0 | 0.00 | 0.07 | 0.00 | ||
| 20260502195128 | 70 | 34 | 5.0 | 4.0 | 0.00 | 0.07 | 0.00 | ||
| 20260502194628 | 72 | 13 | 7.0 | 8.0 | 0.00 | 0.07 | 0.00 | ||
| 20260502194129 | 74 | 236 | 4.0 | 5.0 | 0.00 | 0.07 | 0.00 | ||
| 20260502193626 | 72 | 20 | 4.0 | 2.0 | 0.00 | 0.07 | 0.00 | ||
| 20260502193127 | 71 | 170 | 2.0 | 0.0 | 0.00 | 0.07 | 0.00 | ||
| 20260502192627 | 72 | 24 | 6.0 | 6.0 | 0.00 | 0.07 | 0.00 | ||
| 20260502192125 | 73 | 15 | 4.0 | 9.0 | 0.00 | 0.07 | 0.00 | ||
| 20260502191725 | 77 | 342 | 0.0 | 8.0 | 0.00 | 0.07 | 0.00 | ||
| 20260502191625 | 77 | 342 | 0.0 | 8.0 | 0.00 | 0.07 | 0.00 | ||
| 20260502191126 | 76 | 255 | 1.0 | 3.0 | 0.00 | 0.07 | 0.00 | ||
| 20260502190623 | 74 | 281 | 3.0 | 2.0 | 0.00 | 0.07 | 0.00 | ||
| 20260502190124 | 72 | 280 | 5.0 | 1.0 | 0.00 | 0.07 | 0.00 | ||
| 20260502185624 | 71 | 51 | 7.0 | 2.0 | 0.00 | 0.07 | 0.00 | ||
| 20260502185122 | 74 | 197 | 1.0 | 0.0 | 0.00 | 0.07 | 0.00 | ||
| 20260502184622 | 73 | 266 | 2.0 | 0.0 | 0.00 | 0.07 | 0.00 | ||
| 20260502184122 | 72 | 359 | 4.0 | 3.0 | 0.00 | 0.07 | 0.00 | ||
| 20260502183620 | 69 | 304 | 5.0 | 4.0 | 0.00 | 0.07 | 0.00 | ||
| 20260502183121 | 68 | 338 | 7.0 | 7.0 | 0.00 | 0.07 | 0.00 | ||
| 20260502182621 | 69 | 329 | 8.0 | 7.0 | 0.00 | 0.07 | 0.00 | ||
| 20260502182119 | 70 | 359 | 4.0 | 3.0 | 0.00 | 0.07 | 0.00 | ||
| 20260502181619 | 69 | 333 | 3.0 | 1.0 | 0.00 | 0.07 | 0.00 | ||
| 20260502181119 | 69 | 316 | 4.0 | 1.0 | 0.00 | 0.07 | 0.00 | ||
| 20260502180617 | 68 | 354 | 4.0 | 4.0 | 0.00 | 0.07 | 0.00 | ||
| 20260502180117 | 67 | 28 | 8.0 | 7.0 | 0.00 | 0.07 | 0.00 | ||
| 20260502170111 | 70 | 287 | 1.0 | 0.0 | 0.00 | 0.07 | 0.00 | ||
| 20260502164110 | 67 | 32 | 3.0 | 5.0 | 0.00 | 0.07 | 0.00 | ||
| 20260502163608 | 67 | 323 | 8.0 | 7.0 | 0.00 | 0.07 | 0.00 | ||
| 20260502163108 | 67 | 18 | 3.0 | 2.0 | 0.00 | 0.07 | 0.00 | ||
| 20260502162609 | 67 | 301 | 6.0 | 3.0 | 0.00 | 0.07 | 0.00 | ||
| 20260502162106 | 65 | 322 | 1.0 | 2.0 | 0.00 | 0.07 | 0.00 | ||
| 20260502161607 | 66 | 353 | 7.0 | 6.0 | 0.00 | 0.07 | 0.00 | ||
| 20260502161108 | 67 | 315 | 5.0 | 7.0 | 0.00 | 0.07 | 0.00 | ||
| 20260502160605 | 68 | 293 | 0.0 | 3.0 | 0.00 | 0.07 | 0.00 | ||
| 20260502160106 | 67 | 311 | 0.0 | 0.0 | 0.00 | 0.07 | 0.00 | ||
| 20260502152101 | 65 | 248 | 3.0 | 5.0 | 0.00 | 0.07 | 0.00 | ||
| 20260502151602 | 65 | 24 | 3.0 | 3.0 | 0.00 | 0.07 | 0.00 | ||
| 20260502151102 | 64 | 14 | 2.0 | 1.0 | 0.00 | 0.07 | 0.00 | ||
| 20260502150734 | 64 | 302 | 4.0 | 5.0 | 0.00 | 0.07 | 0.00 | ||
| 20260502150600 | 64 | 302 | 4.0 | 5.0 | 0.00 | 0.07 | 0.00 | ||
| 20260502130549 | 65 | 252 | 3.0 | 2.0 | 0.00 | 0.02 | 0.07 | ||
| 20260502123546 | 57 | 264 | 0.0 | 0.0 | 0.00 | 0.02 | 0.07 | ||
| 20260502123047 | 55 | 264 | 0.0 | 0.0 | 0.00 | 0.02 | 0.07 | ||
| 20260502122547 | 54 | 264 | 0.0 | 0.0 | 0.00 | 0.02 | 0.07 | ||
| 20260502122045 | 52 | 264 | 0.0 | 0.0 | 0.00 | 0.02 | 0.07 | ||
| 20260502121546 | 50 | 264 | 0.0 | 0.0 | 0.00 | 0.02 | 0.07 | ||
| 20260502121046 | 49 | 264 | 0.0 | 0.0 | 0.00 | 0.02 | 0.07 | ||
| 20260502120544 | 48 | 264 | 0.0 | 0.0 | 0.00 | 0.02 | 0.07 | ||
| 20260502115545 | 48 | 264 | 0.0 | 0.0 | 0.00 | 0.02 | 0.07 | ||
| 20260502115043 | 49 | 264 | 0.0 | 0.0 | 0.00 | 0.02 | 0.07 | ||
| 20260502114543 | 49 | 264 | 0.0 | 0.0 | 0.00 | 0.02 | 0.07 | ||
| 20260502114044 | 49 | 264 | 0.0 | 0.0 | 0.00 | 0.02 | 0.07 | ||
| 20260502113042 | 49 | 264 | 0.0 | 0.0 | 0.00 | 0.02 | 0.07 | ||
| 20260502112542 | 49 | 264 | 0.0 | 0.0 | 0.00 | 0.02 | 0.07 | ||
| 20260502112040 | 49 | 264 | 0.0 | 0.0 | 0.00 | 0.02 | 0.07 | ||
| 20260502111540 | 49 | 264 | 0.0 | 0.0 | 0.00 | 0.02 | 0.07 | ||
| 20260502111041 | 50 | 264 | 0.0 | 0.0 | 0.00 | 0.02 | 0.07 | ||
| 20260502110538 | 50 | 264 | 0.0 | 0.0 | 0.00 | 0.02 | 0.07 | ||
| 20260502110039 | 50 | 264 | 0.0 | 0.0 | 0.00 | 0.02 | 0.07 | ||
| 20260502105540 | 50 | 264 | 0.0 | 0.0 | 0.00 | 0.02 | 0.07 | ||
| 20260502105037 | 50 | 259 | 1.0 | 1.0 | 0.00 | 0.02 | 0.07 | ||
| 20260502104538 | 50 | 243 | 2.0 | 1.0 | 0.00 | 0.02 | 0.07 | ||
| 20260502104038 | 50 | 238 | 2.0 | 1.0 | 0.00 | 0.02 | 0.07 | ||
| 20260502103536 | 50 | 246 | 3.0 | 3.0 | 0.00 | 0.02 | 0.07 | ||
| 20260502103036 | 50 | 253 | 2.0 | 2.0 | 0.00 | 0.02 | 0.07 | ||
| 20260502102537 | 50 | 248 | 3.0 | 3.0 | 0.00 | 0.02 | 0.07 | ||
| 20260502102035 | 50 | 243 | 3.0 | 4.0 | 0.00 | 0.02 | 0.07 | ||
| 20260502101535 | 50 | 249 | 3.0 | 3.0 | 0.00 | 0.02 | 0.07 | ||
| 20260502101036 | 50 | 252 | 3.0 | 4.0 | 0.00 | 0.02 | 0.07 | ||
| 20260502100533 | 50 | 260 | 2.0 | 2.0 | 0.00 | 0.02 | 0.07 | ||
| 20260502100308 | 49 | 293 | 0.0 | 0.0 | 0.00 | 0.02 | 0.07 | ||
| 20260502091530 | 51 | 335 | 3.0 | 2.0 | 0.00 | 0.02 | 0.07 | ||
| 20260502091030 | 51 | 321 | 0.0 | 0.0 | 0.00 | 0.02 | 0.07 | ||
| 20260502090528 | 51 | 338 | 0.0 | 0.0 | 0.00 | 0.02 | 0.07 | ||
| 20260502071520 | 51 | 278 | 3.0 | 3.0 | 0.00 | 0.02 | 0.07 | ||
| 20260502071020 | 51 | 304 | 4.0 | 4.0 | 0.00 | 0.02 | 0.07 | ||
| 20260502070518 | 51 | 302 | 4.0 | 4.0 | 0.00 | 0.02 | 0.07 | ||
| 20260502070018 | 51 | 290 | 3.0 | 2.0 | 0.00 | 0.02 | 0.07 | ||
| 20260502065519 | 50 | 277 | 2.0 | 3.0 | 0.00 | 0.02 | 0.07 | ||
| 20260502065016 | 50 | 283 | 3.0 | 3.0 | 0.00 | 0.02 | 0.07 | ||
| 20260502064517 | 50 | 260 | 0.0 | 0.0 | 0.00 | 0.02 | 0.07 | ||
| 20260502064017 | 50 | 260 | 0.0 | 0.0 | 0.00 | 0.02 | 0.07 | ||
| 20260502063515 | 50 | 260 | 0.0 | 0.0 | 0.00 | 0.02 | 0.07 | ||
| 20260502063015 | 50 | 260 | 0.0 | 0.0 | 0.00 | 0.02 | 0.07 | ||
| 20260502062516 | 50 | 260 | 0.0 | 0.0 | 0.00 | 0.02 | 0.07 | ||
| 20260502062013 | 49 | 260 | 0.0 | 0.0 | 0.00 | 0.02 | 0.07 | ||
| 20260502061514 | 49 | 219 | 0.0 | 0.0 | 0.00 | 0.02 | 0.07 | ||
| 20260502061014 | 49 | 270 | 1.0 | 0.0 | 0.00 | 0.02 | 0.07 | ||
| 20260502060512 | 49 | 253 | 0.0 | 0.0 | 0.00 | 0.02 | 0.07 | ||
| 20260502060012 | 49 | 253 | 0.0 | 0.0 | 0.00 | 0.02 | 0.07 | ||
| 20260502055513 | 49 | 253 | 0.0 | 0.0 | 0.00 | 0.02 | 0.07 | ||
| 20260502055010 | 48 | 253 | 0.0 | 0.0 | 0.00 | 0.02 | 0.07 | ||
| 20260502054511 | 48 | 253 | 0.0 | 0.0 | 0.00 | 0.02 | 0.07 | ||
| 20260502054011 | 48 | 253 | 0.0 | 0.0 | 0.00 | 0.02 | 0.07 | ||
| 20260502053509 | 48 | 253 | 0.0 | 0.0 | 0.00 | 0.02 | 0.07 | ||
| 20260502053009 | 48 | 253 | 0.0 | 0.0 | 0.00 | 0.02 | 0.07 | ||
| 20260502052509 | 48 | 253 | 0.0 | 0.0 | 0.00 | 0.02 | 0.07 | ||
| 20260502052007 | 49 | 253 | 0.0 | 0.0 | 0.00 | 0.02 | 0.07 | ||
| 20260502051508 | 49 | 253 | 0.0 | 0.0 | 0.00 | 0.02 | 0.07 | ||
| 20260502051008 | 48 | 253 | 0.0 | 0.0 | 0.00 | 0.02 | 0.07 | ||
| 20260502050506 | 48 | 253 | 0.0 | 0.0 | 0.00 | 0.02 | 0.07 | ||
| 20260502050006 | 49 | 253 | 0.0 | 0.0 | 0.00 | 0.02 | 0.07 | ||
| 20260502045507 | 49 | 253 | 0.0 | 0.0 | 0.00 | 0.02 | 0.07 | ||
| 20260502045005 | 49 | 253 | 1.0 | 1.0 | 0.00 | 0.02 | 0.07 | ||
| 20260502044505 | 49 | 197 | 0.0 | 0.0 | 0.00 | 0.02 | 0.07 | ||
| 20260502044006 | 49 | 197 | 0.0 | 0.0 | 0.00 | 0.02 | 0.07 | ||
| 20260502043504 | 49 | 197 | 0.0 | 0.0 | 0.00 | 0.02 | 0.07 | ||
| 20260502043004 | 50 | 250 | 2.0 | 2.0 | 0.00 | 0.02 | 0.07 | ||
| 20260502042002 | 50 | 242 | 2.0 | 2.0 | 0.00 | 0.02 | 0.07 | ||
| 20260502041503 | 50 | 356 | 0.0 | 0.0 | 0.00 | 0.02 | 0.07 | ||
| 20260502041003 | 50 | 356 | 0.0 | 0.0 | 0.00 | 0.02 | 0.07 | ||
| 20260502040501 | 51 | 356 | 0.0 | 0.0 | 0.00 | 0.02 | 0.07 | ||
| 20260502040002 | 51 | 356 | 0.0 | 0.0 | 0.00 | 0.02 | 0.07 | ||
| 20260502035502 | 51 | 356 | 0.0 | 0.0 | 0.00 | 0.02 | 0.07 | ||
| 20260502035000 | 51 | 356 | 0.0 | 0.0 | 0.00 | 0.02 | 0.07 | ||
| 20260502034500 | 51 | 356 | 1.0 | 0.0 | 0.00 | 0.02 | 0.07 | ||
| 20260502034001 | 51 | 345 | 0.0 | 0.0 | 0.00 | 0.02 | 0.07 | ||
| 20260502033458 | 52 | 345 | 0.0 | 0.0 | 0.00 | 0.02 | 0.07 | ||
| 20260502032959 | 52 | 345 | 1.0 | 1.0 | 0.00 | 0.02 | 0.07 | ||
| 20260502032459 | 53 | 13 | 2.0 | 2.0 | 0.00 | 0.02 | 0.07 | ||
| 20260502031957 | 53 | 24 | 4.0 | 3.0 | 0.00 | 0.02 | 0.07 | ||
| 20260502031457 | 53 | 25 | 3.0 | 3.0 | 0.00 | 0.02 | 0.07 | ||
| 20260502030958 | 54 | 20 | 3.0 | 3.0 | 0.00 | 0.02 | 0.07 | ||
| 20260502030455 | 54 | 38 | 4.0 | 6.0 | 0.00 | 0.02 | 0.07 | ||
| 20260502025956 | 54 | 39 | 4.0 | 4.0 | 0.00 | 0.02 | 0.07 | ||
| 20260502025457 | 54 | 41 | 4.0 | 4.0 | 0.00 | 0.02 | 0.07 | ||
| 20260502024954 | 54 | 27 | 4.0 | 5.0 | 0.00 | 0.02 | 0.07 | ||
| 20260502024455 | 54 | 14 | 4.0 | 4.0 | 0.00 | 0.02 | 0.07 | ||
| 20260502023955 | 54 | 24 | 3.0 | 3.0 | 0.00 | 0.02 | 0.07 | ||
| 20260502023553 | 54 | 28 | 3.0 | 3.0 | 0.00 | 0.02 | 0.07 | ||
| 20260502023453 | 54 | 21 | 3.0 | 3.0 | 0.00 | 0.02 | 0.07 | ||
| 20260502022953 | 54 | 28 | 3.0 | 3.0 | 0.00 | 0.02 | 0.07 | ||
| 20260502022454 | 54 | 27 | 4.0 | 4.0 | 0.00 | 0.02 | 0.07 | ||
| 20260502021951 | 54 | 27 | 3.0 | 3.0 | 0.00 | 0.02 | 0.07 | ||
| 20260502021452 | 54 | 28 | 5.0 | 4.0 | 0.00 | 0.02 | 0.07 | ||
| 20260502020953 | 55 | 23 | 4.0 | 3.0 | 0.00 | 0.02 | 0.07 | ||
| 20260502020450 | 54 | 25 | 3.0 | 4.0 | 0.00 | 0.02 | 0.07 | ||
| 20260502020243 | 55 | 41 | 2.0 | 2.0 | 0.00 | 0.02 | 0.07 | ||
| 20260502015951 | 55 | 41 | 2.0 | 2.0 | 0.00 | 0.02 | 0.07 | ||
| 20260502015451 | 55 | 28 | 3.0 | 4.0 | 0.00 | 0.02 | 0.07 | ||
| 20260502014949 | 55 | 28 | 3.0 | 3.0 | 0.00 | 0.02 | 0.07 | ||
| 20260502014450 | 55 | 35 | 4.0 | 3.0 | 0.00 | 0.02 | 0.07 | ||
| 20260502013950 | 55 | 46 | 4.0 | 4.0 | 0.00 | 0.02 | 0.07 | ||
| 20260502013448 | 55 | 35 | 4.0 | 3.0 | 0.00 | 0.02 | 0.07 | ||
| 20260502013356 | 56 | 32 | 4.0 | 3.0 | 0.00 | 0.02 | 0.07 | ||
| 20260502012948 | 56 | 32 | 4.0 | 3.0 | 0.00 | 0.02 | 0.07 | ||
| 20260502012449 | 56 | 28 | 5.0 | 6.0 | 0.00 | 0.02 | 0.07 | ||
| 20260502011947 | 56 | 11 | 4.0 | 6.0 | 0.00 | 0.02 | 0.07 | ||
| 20260502011447 | 55 | 48 | 6.0 | 6.0 | 0.00 | 0.02 | 0.07 | ||
| 20260502010948 | 56 | 34 | 5.0 | 7.0 | 0.00 | 0.02 | 0.07 | ||
| 20260502010445 | 56 | 38 | 6.0 | 9.0 | 0.00 | 0.02 | 0.07 | ||
| 20260502005946 | 56 | 41 | 8.0 | 7.0 | 0.00 | 0.02 | 0.07 | ||
| 20260502005447 | 56 | 37 | 10.0 | 6.0 | 0.00 | 0.02 | 0.07 | ||
| 20260502004943 | 56 | 39 | 10.0 | 12.0 | 0.00 | 0.02 | 0.07 | ||
| 20260502004444 | 56 | 38 | 10.0 | 8.0 | 0.00 | 0.02 | 0.07 | ||
| 20260502003944 | 57 | 38 | 7.0 | 9.0 | 0.00 | 0.02 | 0.07 | ||
| 20260502003442 | 57 | 20 | 11.0 | 10.0 | 0.00 | 0.02 | 0.07 | ||
| 20260502002443 | 57 | 18 | 13.0 | 11.0 | 0.00 | 0.02 | 0.07 | ||
| 20260502001941 | 57 | 37 | 12.0 | 13.0 | 0.00 | 0.02 | 0.07 | ||
| 20260502001441 | 58 | 4 | 9.0 | 11.0 | 0.00 | 0.02 | 0.07 | ||
| 20260502000942 | 58 | 20 | 9.0 | 11.0 | 0.00 | 0.02 | 0.07 | ||
| 20260502000439 | 57 | 25 | 9.0 | 10.0 | 0.00 | 0.02 | 0.07 | ||
| 20260501235940 | 58 | 7 | 11.0 | 11.0 | 0.00 | 0.02 | 0.07 | ||
| 20260501235441 | 57 | 3 | 9.0 | 10.0 | 0.00 | 0.02 | 0.07 | ||
| 20260501234938 | 57 | 23 | 11.0 | 13.0 | 0.00 | 0.02 | 0.07 | ||
| 20260501234439 | 57 | 10 | 8.0 | 10.0 | 0.00 | 0.02 | 0.07 | ||
| 20260501233939 | 56 | 31 | 12.0 | 10.0 | 0.00 | 0.02 | 0.07 | ||
| 20260501233437 | 57 | 7 | 11.0 | 12.0 | 0.00 | 0.02 | 0.07 | ||
| 20260501232938 | 57 | 25 | 12.0 | 11.0 | 0.00 | 0.02 | 0.07 | ||
| 20260501232438 | 57 | 23 | 11.0 | 10.0 | 0.00 | 0.02 | 0.07 | ||
| 20260501231936 | 58 | 46 | 12.0 | 10.0 | 0.00 | 0.02 | 0.07 | ||
| 20260501231436 | 58 | 31 | 12.0 | 8.0 | 0.00 | 0.02 | 0.07 | ||
| 20260501230937 | 57 | 14 | 10.0 | 13.0 | 0.00 | 0.02 | 0.07 | ||
| 20260501230435 | 57 | 13 | 11.0 | 13.0 | 0.00 | 0.02 | 0.07 | ||
| 20260501225935 | 58 | 58 | 10.0 | 16.0 | 0.00 | 0.02 | 0.07 | ||
| 20260501225436 | 58 | 13 | 10.0 | 7.0 | 0.00 | 0.02 | 0.07 | ||
| 20260501224934 | 57 | 27 | 12.0 | 11.0 | 0.00 | 0.02 | 0.07 | ||
| 20260501224435 | 57 | 17 | 12.0 | 11.0 | 0.00 | 0.02 | 0.07 | ||
| 20260501223935 | 57 | 60 | 10.0 | 10.0 | 0.00 | 0.02 | 0.07 | ||
| 20260501223433 | 57 | 10 | 6.0 | 5.0 | 0.00 | 0.02 | 0.07 | ||
| 20260501222933 | 56 | 4 | 9.0 | 12.0 | 0.00 | 0.02 | 0.07 | ||
| 20260501222434 | 56 | 0 | 12.0 | 13.0 | 0.00 | 0.02 | 0.07 | ||
| 20260501221932 | 56 | 7 | 13.0 | 11.0 | 0.00 | 0.02 | 0.07 | ||
| 20260501221432 | 55 | 21 | 12.0 | 10.0 | 0.00 | 0.02 | 0.07 | ||
| 20260501220933 | 56 | 21 | 13.0 | 15.0 | 0.00 | 0.02 | 0.07 | ||
| 20260501220431 | 55 | 17 | 11.0 | 14.0 | 0.00 | 0.02 | 0.07 | ||
| 20260501215931 | 56 | 10 | 14.0 | 15.0 | 0.00 | 0.02 | 0.07 | ||
| 20260501215432 | 56 | 17 | 13.0 | 11.0 | 0.00 | 0.02 | 0.07 | ||
| 20260501214929 | 56 | 27 | 12.0 | 11.0 | 0.00 | 0.02 | 0.07 | ||
| 20260501214430 | 56 | 25 | 12.0 | 11.0 | 0.00 | 0.02 | 0.07 | ||
| 20260501213930 | 56 | 6 | 12.0 | 11.0 | 0.00 | 0.02 | 0.07 | ||
| 20260501213428 | 55 | 14 | 9.0 | 11.0 | 0.00 | 0.02 | 0.07 | ||
| 20260501212929 | 56 | 38 | 10.0 | 11.0 | 0.00 | 0.02 | 0.07 | ||
| 20260501212429 | 56 | 24 | 12.0 | 10.0 | 0.00 | 0.02 | 0.07 | ||
| 20260501211927 | 56 | 51 | 9.0 | 9.0 | 0.00 | 0.02 | 0.07 | ||
| 20260501211428 | 55 | 1 | 13.0 | 13.0 | 0.00 | 0.02 | 0.07 | ||
| 20260501210928 | 56 | 11 | 14.0 | 12.0 | 0.00 | 0.02 | 0.07 | ||
| 20260501205926 | 56 | 39 | 15.0 | 18.0 | 0.00 | 0.02 | 0.07 | ||
| 20260501205427 | 56 | 27 | 15.0 | 14.0 | 0.02 | 0.02 | 0.07 | ||
| 20260501204925 | 56 | 10 | 14.0 | 17.0 | 0.02 | 0.02 | 0.07 | ||
| 20260501204425 | 56 | 1 | 18.0 | 19.0 | 0.02 | 0.02 | 0.07 | ||
| 20260501203926 | 56 | 20 | 15.0 | 17.0 | 0.02 | 0.02 | 0.07 |